| time (UTC) | temp F | wind direction | speed knots | gust knots | rain 1hr in | rain 24hr in | rain mn in | humidity % | barometer mb |
| 20260505051553 | 59 | 0 | 0.0 | 0.0 | 0.00 | 0.00 | 0.00 | 46 | 1007.3 |
| 20260505041551 | 59 | 0 | 0.0 | 0.0 | 0.00 | 0.00 | 0.00 | 42 | 1006.6 |
| 20260505040053 | 60 | 0 | 0.0 | 0.0 | 0.00 | 0.00 | 0.00 | 41 | 1006.3 |
| 20260505034553 | 60 | 0 | 0.0 | 0.0 | 0.00 | 0.00 | 0.00 | 42 | 1006.0 |
| 20260505033110 | 61 | 0 | 0.0 | 0.0 | 0.00 | 0.00 | 0.00 | 40 | 1005.9 |
| 20260505031552 | 62 | 0 | 0.0 | 0.0 | 0.00 | 0.00 | 0.00 | 36 | 1005.7 |
| 20260505030058 | 64 | 0 | 0.0 | 0.0 | 0.00 | 0.00 | 0.00 | 33 | 1005.5 |
| 20260505024552 | 66 | 0 | 0.0 | 0.0 | 0.00 | 0.00 | 0.00 | 30 | 1005.3 |
| 20260505023101 | 68 | 0 | 0.0 | 0.0 | 0.00 | 0.00 | 0.00 | 28 | 1005.2 |
| 20260505021555 | 69 | 0 | 0.0 | 0.0 | 0.00 | 0.00 | 0.00 | 27 | 1005.2 |
| 20260505020056 | 71 | 0 | 0.0 | 0.0 | 0.00 | 0.00 | 0.00 | 26 | 1005.1 |
| 20260505014554 | 71 | 0 | 0.0 | 5.2 | 0.00 | 0.00 | 0.00 | 25 | 1004.9 |
| 20260505013051 | 72 | 144 | 0.9 | 5.2 | 0.00 | 0.00 | 0.00 | 24 | 1004.9 |
| 20260505011559 | 73 | 0 | 0.9 | 6.1 | 0.00 | 0.00 | 0.00 | 24 | 1005.1 |
| 20260505010058 | 73 | 197 | 1.7 | 6.1 | 0.00 | 0.00 | 0.00 | 23 | 1005.1 |
| 20260505004558 | 74 | 212 | 1.7 | 7.8 | 0.00 | 0.00 | 0.00 | 22 | 1005.1 |
| 20260505003051 | 74 | 215 | 2.6 | 7.8 | 0.00 | 0.00 | 0.00 | 21 | 1005.3 |
| 20260505001550 | 74 | 199 | 2.6 | 7.0 | 0.00 | 0.00 | 0.00 | 24 | 1005.5 |
| 20260505000101 | 74 | 209 | 3.5 | 7.8 | 0.00 | 0.00 | 0.00 | 22 | 1005.6 |
| 20260504234615 | 74 | 194 | 3.5 | 8.7 | 0.00 | 0.00 | 0.00 | 23 | 1005.6 |
| 20260504233052 | 74 | 250 | 3.5 | 8.7 | 0.00 | 0.00 | 0.00 | 24 | 1005.5 |
| 20260504231559 | 74 | 186 | 4.3 | 12.2 | 0.00 | 0.00 | 0.00 | 24 | 1005.4 |
| 20260504230052 | 75 | 235 | 6.1 | 11.3 | 0.00 | 0.00 | 0.00 | 24 | 1005.4 |
| 20260504224603 | 77 | 183 | 1.7 | 7.8 | 0.00 | 0.00 | 0.00 | 17 | 1005.4 |
| 20260504223056 | 78 | 239 | 3.5 | 7.0 | 0.00 | 0.00 | 0.00 | 18 | 1005.4 |
| 20260504221603 | 77 | 284 | 2.6 | 6.1 | 0.00 | 0.00 | 0.00 | 16 | 1005.5 |
| 20260504220057 | 77 | 202 | 1.7 | 8.7 | 0.00 | 0.00 | 0.00 | 16 | 1005.6 |
| 20260504214603 | 78 | 294 | 2.6 | 7.0 | 0.00 | 0.00 | 0.00 | 17 | 1005.9 |
| 20260504213109 | 78 | 234 | 0.9 | 4.3 | 0.00 | 0.00 | 0.00 | 20 | 1006.2 |
| 20260504211557 | 77 | 208 | 0.9 | 6.1 | 0.00 | 0.00 | 0.00 | 18 | 1006.3 |
| 20260504210105 | 77 | 198 | 2.6 | 8.7 | 0.00 | 0.00 | 0.00 | 17 | 1006.6 |
| 20260504204636 | 77 | 0 | 0.9 | 7.0 | 0.00 | 0.00 | 0.00 | 20 | 1006.7 |
| 20260504203059 | 76 | 248 | 2.6 | 6.1 | 0.00 | 0.00 | 0.00 | 20 | 1006.8 |
| 20260504201559 | 75 | 0 | 1.7 | 6.1 | 0.00 | 0.00 | 0.00 | 20 | 1007.1 |
| 20260504194558 | 75 | 0 | 1.7 | 9.6 | 0.00 | 0.00 | 0.00 | 19 | 1007.6 |
| 20260504193055 | 74 | 245 | 1.7 | 7.0 | 0.00 | 0.00 | 0.00 | 24 | 1007.7 |
| 20260504191554 | 74 | 0 | 2.6 | 7.0 | 0.00 | 0.00 | 0.00 | 24 | 1007.8 |
| 20260504190101 | 74 | 261 | 1.7 | 6.1 | 0.00 | 0.00 | 0.00 | 21 | 1008.1 |
| 20260504184604 | 74 | 271 | 1.7 | 7.0 | 0.00 | 0.00 | 0.00 | 22 | 1008.1 |
| 20260504183100 | 75 | 268 | 1.7 | 5.2 | 0.00 | 0.00 | 0.00 | 22 | 1008.5 |
| 20260504181557 | 74 | 0 | 0.0 | 3.5 | 0.00 | 0.00 | 0.00 | 24 | 1008.6 |
| 20260504180055 | 74 | 0 | 0.0 | 3.5 | 0.00 | 0.00 | 0.00 | 26 | 1008.8 |
| 20260504174554 | 74 | 0 | 0.0 | 5.2 | 0.00 | 0.00 | 0.00 | 24 | 1008.9 |
| 20260504173056 | 73 | 0 | 0.0 | 3.5 | 0.00 | 0.00 | 0.00 | 26 | 1008.9 |
| 20260504171557 | 72 | 192 | 0.0 | 3.5 | 0.00 | 0.00 | 0.00 | 25 | 1009.1 |
| 20260504081600 | 50 | 0 | 0.0 | 0.0 | 0.00 | 0.00 | 0.00 | 51 | 1008.2 |